Elkins, WV

7:01 AM EDT on April 24, 2018 (GMT -0400)
Elkins-Randolph County

Weather History for KEKN - October, 2011

Change the Weather History Date:

Saturday, October 29, 2011

  Actual Average Record
Temperature  
Mean Temperature 34 °F 47 °F  
Max Temperature 37 °F 60 °F 76 °F (1927)
Min Temperature 31 °F 34 °F 14 °F (1965)
Degree Days  
Heating Degree Days 31 18  
Month to date heating degree days 383 394  
Since 1 July heating degree days 482 554  
Cooling Degree Days 0 0  
Month to date cooling degree days 0 0  
Year to date cooling degree days 699 471  
Moisture  
Dew Point 32 °F    
Average Humidity 91    
Maximum Humidity 100    
Minimum Humidity 82    
Precipitation  
Precipitation 0.24 in 0.09 in 1.33 in (2012)
Month to date precipitation 4.27 2.65  
Year to date precipitation 44.36 39.09  
Snow  
Snow 1.10 in 0.00 in 7.00 in (2012)
Month to date snowfall 1.1 0.3  
Since 1 September snowfall 1.1 0.3  
Snow Depth 1.00 in    
Sea Level Pressure  
Sea Level Pressure 30.05 in    
Wind  
Wind Speed 2 mph (NW)    
Max Wind Speed 13 mph    
Max Gust Speed 18 mph    
Visibility 5 miles    
Events Fog , Snow    
T = Trace of Precipitation, MM = Missing Value Source: NWS Daily Summary

Daily Weather History Graph

Daily Weather History Graph

Search for Another Location

Airport or City:

Astronomy

Oct. 29, 2011 Rise Set
Actual Time 7:43 AM EDT 6:22 PM EDT
Civil Twilight 7:15 AM EDT 6:50 PM EDT
Nautical Twilight 6:44 AM EDT 7:21 PM EDT
Astronomical Twilight 6:13 AM EDT 7:52 PM EDT
Moon 11:01 AM EDT (10/29) 8:46 PM EDT (10/29)
Length of Visible Light 11h 34m
Length of Day
10h 39m
Waxing Crescent, 11% of the Moon is Illuminated
Oct 29
Waxing Crescent
Nov 2
First Quarter
Nov 10
Full
Nov 18
Last Quarter
Nov 25
New

Hourly Weather History & Observations

Time (EDT) Temp. Windchill Dew Point Humidity Pressure Visibility Wind Dir Wind Speed Gust Speed Precip Events Conditions
12:36 AM 33.8 °F - 32.0 °F 93% 30.04 in 4.0 mi Calm Calm - 0.01 in Snow Light Snow
12:51 AM 34.0 °F - 32.0 °F 92% 30.09 in 3.0 mi Calm Calm - 0.01 in Snow Light Snow
1:51 AM 34.0 °F - 33.1 °F 96% 30.08 in 4.0 mi Calm Calm - 0.01 in Snow Light Snow
2:19 AM 33.8 °F - 32.0 °F 93% 30.02 in 2.0 mi Calm Calm - 0.01 in Snow Light Snow
2:26 AM 33.8 °F 30.8 °F 32.0 °F 93% 30.01 in 1.8 mi North 3.5 mph - 0.01 in Snow Light Snow
2:37 AM 33.8 °F 30.8 °F 32.0 °F 93% 30.01 in 2.0 mi NNW 3.5 mph - 0.02 in Snow Light Snow
2:42 AM 33.8 °F 30.8 °F 32.0 °F 93% 30.01 in 3.0 mi NNW 3.5 mph - 0.02 in Snow Light Snow
2:51 AM 33.1 °F - 32.0 °F 96% 30.06 in 5.0 mi Calm Calm - 0.02 in Snow Light Snow
2:58 AM 33.8 °F 29.6 °F 32.0 °F 93% 30.01 in 5.0 mi NNW 4.6 mph - 0.00 in Snow Light Snow
3:27 AM 33.8 °F - 32.0 °F 93% 30.01 in 3.0 mi Calm Calm - 0.01 in Snow Light Snow
3:35 AM 33.8 °F - 32.0 °F 93% 30.01 in 2.5 mi Calm Calm - 0.01 in Snow Light Snow
3:46 AM 33.8 °F - 32.0 °F 93% 30.00 in 1.8 mi Calm Calm - 0.01 in Snow Light Snow
3:51 AM 33.1 °F - 32.0 °F 96% 30.06 in 1.5 mi Calm Calm - 0.02 in Snow Light Snow
3:59 AM 33.8 °F - 32.0 °F 93% 30.00 in 2.5 mi Calm Calm - 0.00 in Snow Light Snow
4:07 AM 33.8 °F 30.8 °F 32.0 °F 93% 30.00 in 4.0 mi NNW 3.5 mph - N/A Snow Light Snow
4:32 AM 33.8 °F - 32.0 °F 93% 29.98 in 4.0 mi Calm Calm - 0.01 in Snow Light Snow
4:49 AM 33.8 °F - 32.0 °F 93% 29.98 in 3.0 mi Calm Calm - 0.01 in Snow Light Snow
4:51 AM 33.1 °F - 32.0 °F 96% 30.04 in 3.0 mi Calm Calm - 0.01 in Snow Light Snow
5:15 AM 33.8 °F 30.8 °F 32.0 °F 93% 29.98 in 4.0 mi NNW 3.5 mph - N/A Snow Light Snow
5:36 AM 33.8 °F 30.8 °F 32.0 °F 93% 29.99 in 3.0 mi NW 3.5 mph - 0.01 in Snow Light Snow
5:43 AM 33.8 °F 30.8 °F 32.0 °F 93% 29.99 in 2.0 mi NNW 3.5 mph - 0.01 in Snow Light Snow
5:51 AM 33.1 °F 30.0 °F 32.0 °F 96% 30.05 in 1.5 mi North 3.5 mph - 0.01 in Snow Light Snow
6:05 AM 33.8 °F 29.6 °F 32.0 °F 93% 29.98 in 1.2 mi North 4.6 mph - 0.02 in Snow Light Snow
6:51 AM 32.0 °F - 32.0 °F 100% 30.06 in 1.2 mi Calm Calm - 0.05 in Snow Light Snow
7:03 AM 33.8 °F - 32.0 °F 93% 29.99 in 1.5 mi Calm Calm - 0.00 in Snow Light Snow
7:39 AM 33.8 °F - 32.0 °F 93% 30.00 in 1.5 mi Calm Calm - N/A Snow Light Snow
7:51 AM 33.1 °F - 32.0 °F 96% 30.06 in 1.8 mi Calm Calm - 0.02 in Snow Light Snow
8:04 AM 33.8 °F - 32.0 °F 93% 30.00 in 0.8 mi Calm Calm - 0.01 in Snow Light Snow
8:26 AM 33.8 °F - 32.0 °F 93% 30.01 in 0.5 mi Calm Calm - 0.04 in Fog , Snow Snow
8:51 AM 32.0 °F - 32.0 °F 100% 30.07 in 0.8 mi Calm Calm - 0.06 in Snow Light Snow
9:03 AM 33.8 °F - 32.0 °F 93% 30.01 in 0.5 mi Calm Calm - 0.01 in Fog , Snow Snow
9:16 AM 33.8 °F - 32.0 °F 93% 30.02 in 1.0 mi Calm Calm - 0.01 in Snow Light Snow
9:41 AM 33.8 °F - 32.0 °F 93% 30.02 in 1.5 mi Calm Calm - 0.02 in Snow Light Snow
9:51 AM 33.1 °F - 32.0 °F 96% 30.09 in 1.8 mi Calm Calm - 0.02 in Snow Light Snow
10:01 AM 33.8 °F - 32.0 °F 93% 30.02 in 3.0 mi Calm Calm - 0.00 in Snow Light Snow
10:04 AM 33.8 °F - 33.8 °F 100% 30.02 in 2.5 mi Calm Calm - 0.00 in Snow Light Snow
10:23 AM 33.8 °F - 33.8 °F 100% 30.02 in 1.5 mi Calm Calm - 0.01 in Snow Light Snow
10:49 AM 33.8 °F - 33.8 °F 100% 30.01 in 2.5 mi Calm Calm - 0.01 in Snow Light Snow
10:51 AM 34.0 °F - 33.1 °F 96% 30.08 in 3.0 mi Calm Calm - 0.02 in Snow Light Snow
10:59 AM 33.8 °F - 33.8 °F 100% 30.01 in 6.0 mi Calm Calm - 0.00 in Snow Light Snow
11:51 AM 35.1 °F - 32.0 °F 89% 30.08 in 10.0 mi Calm Calm - 0.00 in   Overcast
11:59 AM 35.6 °F 32.8 °F 32.0 °F 87% 30.02 in 10.0 mi NNW 3.5 mph - 0.00 in Snow Light Snow
12:46 PM 35.6 °F 29.9 °F 30.2 °F 81% 30.01 in 10.0 mi WNW 6.9 mph - 0.00 in   Overcast
12:51 PM 34.0 °F 28.0 °F 30.9 °F 89% 30.08 in 9.0 mi NW 6.9 mph - 0.00 in   Overcast
12:58 PM 33.8 °F 28.6 °F 30.2 °F 87% 30.01 in 7.0 mi WNW 5.8 mph - 0.00 in Snow Light Snow
1:26 PM 33.8 °F 27.0 °F 30.2 °F 87% 30.01 in 5.0 mi WNW 8.1 mph 18.4 mph 0.00 in Snow Light Snow
1:51 PM 34.0 °F 25.5 °F 30.9 °F 89% 30.08 in 3.0 mi WNW 11.5 mph - 0.00 in Snow Light Snow
2:28 PM 33.8 °F 29.6 °F 30.2 °F 87% 30.01 in 4.0 mi NW 4.6 mph - 0.00 in Snow Light Snow
2:47 PM 33.8 °F 27.7 °F 30.2 °F 87% 30.02 in 8.0 mi WNW 6.9 mph - 0.00 in   Overcast
2:51 PM 34.0 °F 28.0 °F 30.9 °F 89% 30.09 in 7.0 mi NW 6.9 mph - 0.00 in   Overcast
3:51 PM 34.0 °F 28.0 °F 30.9 °F 89% 30.10 in 6.0 mi NW 6.9 mph - 0.00 in Snow Light Snow
4:12 PM 35.6 °F 31.7 °F 30.2 °F 81% 30.05 in 10.0 mi NNW 4.6 mph - 0.00 in   Overcast
4:51 PM 35.1 °F 32.2 °F 30.9 °F 85% 30.12 in 10.0 mi WNW 3.5 mph - 0.00 in   Overcast
4:59 PM 35.6 °F 31.7 °F 30.2 °F 81% 30.06 in 10.0 mi NW 4.6 mph - N/A   Overcast
5:36 PM 35.6 °F 32.8 °F 30.2 °F 81% 30.06 in 10.0 mi NW 3.5 mph - N/A   Overcast
5:51 PM 36.0 °F - 30.9 °F 82% 30.12 in 10.0 mi Calm Calm - N/A   Overcast
6:32 PM 33.8 °F - 32.0 °F 93% 30.06 in 9.0 mi Calm Calm - N/A   Overcast
6:51 PM 34.0 °F - 32.0 °F 92% 30.14 in 10.0 mi Calm Calm - N/A   Overcast
7:51 PM 35.1 °F - 33.1 °F 92% 30.15 in 10.0 mi Calm Calm - N/A   Overcast
8:51 PM 34.0 °F - 32.0 °F 92% 30.16 in 9.0 mi Calm Calm - N/A   Overcast
9:13 PM 33.8 °F - 32.0 °F 93% 30.09 in 10.0 mi Calm Calm - N/A   Overcast
9:29 PM 33.8 °F - 33.8 °F 100% 30.09 in 8.0 mi Calm Calm - N/A   Overcast
9:51 PM 33.1 °F - 32.0 °F 96% 30.16 in 7.0 mi Calm Calm - N/A   Overcast
10:14 PM 33.8 °F - 32.0 °F 93% 30.10 in 7.0 mi Calm Calm - N/A   Overcast
10:30 PM 33.8 °F - 32.0 °F 93% 30.10 in 7.0 mi Calm Calm - N/A   Overcast
10:51 PM 33.1 °F - 32.0 °F 96% 30.16 in 8.0 mi Calm Calm - N/A   Overcast
11:14 PM 32.0 °F 28.7 °F 30.2 °F 93% 30.10 in 6.0 mi SW 3.5 mph - N/A   Overcast
11:51 PM 32.0 °F - 30.0 °F 92% 30.17 in 4.0 mi Calm Calm - N/A   Mostly Cloudy